�������l�o���
Date,Time,MP-1(��Sv/h),MP-2(��Sv/h),MP-3(��Sv/h),MP-4(��Sv/h),MP-5(��Sv/h),MP-6(��Sv/h),MP-7(��Sv/h),MP-8(��Sv/h),����,����(m/s),���J
2016/12/28,00:00,1.100,1.825,1.197,2.077,1.430,0.569,1.038,0.963,�k,7.8,��
2016/12/28,00:10,1.099,1.824,1.193,2.077,1.433,0.571,1.038,0.963,�k,8.1,��
2016/12/28,00:20,1.100,1.824,1.196,2.079,1.432,0.568,1.036,0.964,�k,7.4,��
2016/12/28,00:30,1.098,1.826,1.196,2.078,1.433,0.568,1.038,0.961,�k,7.1,��
2016/12/28,00:40,1.098,1.825,1.193,2.077,1.431,0.569,1.038,0.962,�k,7.3,��
2016/12/28,00:50,1.097,1.828,1.194,2.078,1.428,0.569,1.038,0.962,�k,6.4,��
2016/12/28,01:00,1.097,1.827,1.196,2.078,1.431,0.569,1.038,0.963,�k�k��,5.5,��
2016/12/28,01:10,1.098,1.829,1.192,2.077,1.432,0.569,1.036,0.961,�k�k��,6.4,��
2016/12/28,01:20,1.099,1.824,1.193,2.076,1.432,0.569,1.037,0.962,�k,6.0,��
2016/12/28,01:30,1.099,1.825,1.191,2.076,1.434,0.568,1.036,0.961,�k�k��,3.2,��
2016/12/28,01:40,1.097,1.825,1.193,2.076,1.433,0.568,1.037,0.963,�k��,1.7,��
2016/12/28,01:50,1.100,1.824,1.192,2.077,1.433,0.568,1.037,0.960,�k�k��,2.8,��
2016/12/28,02:00,1.098,1.823,1.192,2.078,1.430,0.568,1.038,0.961,�k��,2.6,��
2016/12/28,02:10,1.095,1.823,1.192,2.076,1.432,0.567,1.035,0.961,���k��,3.1,��
2016/12/28,02:20,1.099,1.823,1.190,2.073,1.430,0.570,1.036,0.960,�k��,4.4,��
2016/12/28,02:30,1.096,1.823,1.194,2.080,1.431,0.568,1.036,0.962,�k�k��,5.5,��
2016/12/28,02:40,1.098,1.823,1.193,2.074,1.431,0.568,1.037,0.961,�k,5.0,��
2016/12/28,02:50,1.096,1.823,1.192,2.078,1.433,0.568,1.036,0.961,�k,3.7,��
2016/12/28,03:00,1.097,1.825,1.192,2.077,1.431,0.567,1.035,0.960,�k�k��,1.1,��
2016/12/28,03:10,1.097,1.821,1.191,2.077,1.433,0.567,1.037,0.961,���k��,1.2,��
2016/12/28,03:20,1.097,1.823,1.193,2.076,1.428,0.568,1.037,0.962,���k��,2.6,��
2016/12/28,03:30,1.098,1.821,1.191,2.077,1.431,0.568,1.035,0.962,�k,3.4,��
2016/12/28,03:40,1.096,1.822,1.193,2.074,1.427,0.568,1.035,0.959,�k�k��,4.4,��
2016/12/28,03:50,1.097,1.821,1.193,2.073,1.429,0.569,1.038,0.961,�k��,7.5,��
2016/12/28,04:00,1.095,1.824,1.192,2.076,1.431,0.568,1.038,0.959,�k�k��,9.5,��
2016/12/28,04:10,1.095,1.824,1.194,2.078,1.432,0.570,1.037,0.961,�k�k��,8.5,��
2016/12/28,04:20,1.097,1.824,1.193,2.080,1.428,0.569,1.038,0.962,�k�k��,9.1,��
2016/12/28,04:30,1.096,1.825,1.195,2.074,1.432,0.569,1.037,0.963,�k,8.4,��
2016/12/28,04:40,1.098,1.823,1.194,2.076,1.431,0.568,1.039,0.961,�k,9.6,��
2016/12/28,04:50,1.095,1.824,1.191,2.076,1.427,0.567,1.037,0.961,�k,10.5,��
2016/12/28,05:00,1.091,1.821,1.190,2.076,1.431,0.567,1.035,0.961,�k,12.4,��
2016/12/28,05:10,1.091,1.821,1.191,2.076,1.430,0.567,1.035,0.959,�k,10.2,��
2016/12/28,05:20,1.094,1.823,1.192,2.077,1.433,0.566,1.036,0.959,�k�k��,9.9,��
2016/12/28,05:30,1.093,1.822,1.190,2.074,1.429,0.565,1.038,0.960,�k�k��,8.8,��
2016/12/28,05:40,1.092,1.822,1.190,2.079,1.431,0.568,1.038,0.962,�k��,8.6,��
2016/12/28,05:50,1.091,1.823,1.191,2.077,1.432,0.568,1.036,0.959,�k��,7.3,��
2016/12/28,06:00,1.092,1.824,1.189,2.077,1.431,0.566,1.034,0.959,�k��,6.6,��
2016/12/28,06:10,1.095,1.824,1.190,2.075,1.430,0.567,1.038,0.961,�k��,7.7,��
2016/12/28,06:20,1.093,1.819,1.191,2.076,1.430,0.566,1.037,0.962,�k��,6.7,��
2016/12/28,06:30,1.091,1.821,1.189,2.078,1.428,0.567,1.036,0.961,�k��,7.5,��
2016/12/28,06:40,1.090,1.822,1.190,2.075,1.429,0.568,1.034,0.960,�k�k��,8.6,��
2016/12/28,06:50,1.091,1.822,1.190,2.074,1.431,0.568,1.035,0.960,�k�k��,7.1,��
2016/12/28,07:00,1.092,1.821,1.189,2.072,1.429,0.568,1.035,0.960,�k�k��,6.3,��
2016/12/28,07:10,1.090,1.821,1.188,2.076,1.429,0.567,1.034,0.960,�k�k��,6.4,��
2016/12/28,07:20,1.093,1.819,1.191,2.076,1.428,0.565,1.036,0.961,�k�k��,6.9,��
2016/12/28,07:30,1.091,1.822,1.189,2.077,1.430,0.568,1.036,0.960,�k�k��,6.6,��
2016/12/28,07:40,1.092,1.821,1.191,2.076,1.431,0.566,1.037,0.961,�k��,5.6,��
2016/12/28,07:50,1.089,1.824,1.193,2.076,1.427,0.566,1.035,0.962,�k�k��,5.3,��
2016/12/28,08:00,1.092,1.820,1.189,2.077,1.425,0.568,1.033,0.960,�k�k��,5.5,��
2016/12/28,08:10,1.093,1.822,1.191,2.075,1.430,0.567,1.038,0.961,�k�k��,5.9,��
2016/12/28,08:20,1.091,1.826,1.192,2.074,1.429,0.565,1.035,0.961,�k�k��,5.8,��
2016/12/28,08:30,1.095,1.824,1.191,2.078,1.429,0.565,1.037,0.961,�k�k��,5.6,��
2016/12/28,08:40,1.093,1.823,1.190,2.077,1.431,0.565,1.034,0.960,�k�k��,7.1,��
2016/12/28,08:50,1.093,1.822,1.191,2.075,1.428,0.568,1.036,0.960,�k��,8.5,��
2016/12/28,09:00,1.093,1.822,1.192,2.074,1.429,0.568,1.036,0.960,�k�k��,7.5,��
2016/12/28,09:10,1.092,1.823,1.194,2.078,1.432,0.568,1.037,0.963,�k�k��,7.4,��
2016/12/28,09:20,1.093,1.820,1.192,2.077,1.430,0.567,1.035,0.961,�k�k��,7.3,��
2016/12/28,09:30,1.092,1.823,1.192,2.079,1.430,0.568,1.036,0.962,�k�k��,8.4,��
2016/12/28,09:40,1.090,1.824,1.190,2.080,1.431,0.569,1.035,0.960,�k�k��,10.0,��
2016/12/28,09:50,1.092,1.825,1.192,2.077,1.430,0.564,1.035,0.958,�k�k��,8.6,��
2016/12/28,10:00,1.092,1.825,1.191,2.076,1.431,0.567,1.037,0.961,�k�k��,9.6,��
2016/12/28,10:10,1.092,1.824,1.193,2.076,1.431,0.567,1.036,0.961,�k�k��,9.1,��
2016/12/28,10:20,1.091,1.823,1.189,2.075,1.431,0.567,1.037,0.960,�k�k��,8.3,��
2016/12/28,10:30,1.091,1.825,1.193,2.078,1.431,0.567,1.035,0.961,�k�k��,8.6,��
2016/12/28,10:40,1.097,1.828,1.192,2.078,1.428,0.566,1.035,0.960,�k�k��,7.9,��
2016/12/28,10:50,1.093,1.824,1.191,2.078,1.432,0.567,1.034,0.961,�k�k��,7.3,��
2016/12/28,11:00,1.094,1.823,1.191,2.074,1.433,0.566,1.034,0.960,�k�k��,6.1,��
2016/12/28,11:10,1.092,1.825,1.192,2.080,1.433,0.566,1.034,0.962,�k�k��,6.0,��
2016/12/28,11:20,1.095,1.823,1.193,2.080,1.431,0.567,1.036,0.961,�k�k��,6.2,��
2016/12/28,11:30,1.096,1.824,1.194,2.076,1.432,0.568,1.036,0.960,�k�k��,8.0,��
2016/12/28,11:40,1.094,1.826,1.192,2.077,1.432,0.567,1.037,0.960,�k�k��,6.4,��
2016/12/28,11:50,1.097,1.826,1.193,2.083,1.433,0.566,1.036,0.959,�k�k��,4.8,��
2016/12/28,12:00,1.097,1.826,1.196,2.077,1.434,0.569,1.036,0.960,�k�k��,5.7,��
2016/12/28,12:10,1.097,1.830,1.192,2.079,1.432,0.568,1.038,0.961,�k�k��,6.0,��
2016/12/28,12:20,1.095,1.824,1.192,2.079,1.431,0.568,1.038,0.959,�k�k��,6.3,��
2016/12/28,12:30,1.095,1.828,1.194,2.078,1.432,0.568,1.038,0.962,�k�k��,5.2,��
2016/12/28,12:40,1.095,1.824,1.192,2.080,1.433,0.567,1.038,0.960,�k�k��,4.2,��
2016/12/28,12:50,1.095,1.828,1.193,2.080,1.434,0.566,1.036,0.960,�k,5.9,��
2016/12/28,13:00,1.096,1.825,1.193,2.080,1.433,0.568,1.038,0.962,�k,6.4,��
2016/12/28,13:10,1.096,1.825,1.194,2.078,1.433,0.569,1.036,0.961,�k�k��,5.6,��
2016/12/28,13:20,1.097,1.827,1.193,2.080,1.436,0.566,1.038,0.960,�k,5.7,��
2016/12/28,13:30,1.096,1.827,1.196,2.079,1.436,0.568,1.035,0.958,�k,6.1,��
2016/12/28,13:40,1.097,1.827,1.194,2.077,1.434,0.566,1.036,0.961,�k,5.9,��
2016/12/28,13:50,1.095,1.830,1.195,2.081,1.435,0.566,1.036,0.960,�k,5.8,��
2016/12/28,14:00,1.094,1.826,1.195,2.081,1.434,0.566,1.033,0.961,�k,7.4,��
2016/12/28,14:10,1.097,1.826,1.194,2.078,1.436,0.567,1.034,0.961,�k,6.3,��
2016/12/28,14:20,1.095,1.826,1.192,2.078,1.434,0.567,1.035,0.961,�k,6.9,��
2016/12/28,14:30,1.097,1.828,1.195,2.078,1.434,0.567,1.036,0.961,�k,6.2,��
2016/12/28,14:40,1.096,1.828,1.193,2.079,1.431,0.565,1.035,0.960,�k,6.4,��
2016/12/28,14:50,1.094,1.827,1.192,2.078,1.434,0.566,1.034,0.959,�k,5.7,��
2016/12/28,15:00,1.095,1.827,1.195,2.083,1.434,0.567,1.038,0.959,�k,5.2,��
2016/12/28,15:10,1.098,1.827,1.194,2.078,1.430,0.566,1.035,0.961,�k,4.9,��
2016/12/28,15:20,1.096,1.823,1.193,2.080,1.433,0.567,1.036,0.961,�k,5.4,��
2016/12/28,15:30,1.095,1.826,1.192,2.078,1.434,0.566,1.034,0.959,�k�k��,4.7,��
2016/12/28,15:40,1.097,1.824,1.193,2.080,1.433,0.566,1.035,0.958,�k�k��,4.6,��
2016/12/28,15:50,1.094,1.825,1.194,2.077,1.432,0.567,1.036,0.962,�k�k��,5.3,��
2016/12/28,16:00,1.095,1.823,1.193,2.079,1.432,0.566,1.035,0.960,�k�k��,6.6,��
2016/12/28,16:10,1.094,1.824,1.194,2.079,1.430,0.565,1.034,0.960,�k�k��,6.8,��
2016/12/28,16:20,1.095,1.823,1.191,2.077,1.432,0.565,1.035,0.959,�k�k��,5.7,��
2016/12/28,16:30,1.094,1.825,1.191,2.078,1.431,0.565,1.033,0.960,�k�k��,5.2,��
2016/12/28,16:40,1.093,1.827,1.190,2.076,1.432,0.567,1.035,0.958,�k�k��,4.7,��
2016/12/28,16:50,1.094,1.823,1.190,2.079,1.433,0.565,1.033,0.957,�k�k��,4.3,��
2016/12/28,17:00,1.093,1.824,1.189,2.076,1.431,0.565,1.033,0.959,�k��,3.1,��
2016/12/28,17:10,1.091,1.821,1.189,2.077,1.430,0.565,1.033,0.960,�k��,3.3,��
2016/12/28,17:20,1.091,1.822,1.191,2.076,1.429,0.566,1.034,0.957,�k��,2.8,��
2016/12/28,17:30,1.090,1.826,1.190,2.074,1.430,0.566,1.033,0.958,�k�k��,4.7,��
2016/12/28,17:40,1.091,1.821,1.189,2.077,1.429,0.565,1.032,0.960,�k��,5.3,��
2016/12/28,17:50,1.092,1.823,1.188,2.077,1.432,0.563,1.033,0.958,�k��,5.4,��
2016/12/28,18:00,1.092,1.823,1.187,2.074,1.429,0.564,1.034,0.959,�k��,4.6,��
2016/12/28,18:10,1.089,1.822,1.189,2.075,1.428,0.564,1.034,0.958,�k��,5.3,��
2016/12/28,18:20,1.090,1.825,1.188,2.079,1.428,0.566,1.032,0.957,�k��,5.2,��
2016/12/28,18:30,1.090,1.821,1.188,2.074,1.427,0.564,1.033,0.956,�k��,5.0,��
2016/12/28,18:40,1.089,1.820,1.192,2.073,1.430,0.563,1.031,0.959,�k��,4.9,��
2016/12/28,18:50,1.092,1.820,1.189,2.075,1.429,0.564,1.032,0.959,�k��,4.5,��
2016/12/28,19:00,1.091,1.822,1.188,2.074,1.428,0.564,1.031,0.958,���k��,3.5,��
2016/12/28,19:10,1.091,1.820,1.188,2.072,1.429,0.566,1.031,0.957,���k��,2.3,��
2016/12/28,19:20,1.091,1.820,1.187,2.074,1.429,0.565,1.031,0.956,��,1.7,��
2016/12/28,19:30,1.090,1.822,1.186,2.074,1.430,0.564,1.033,0.958,���쐼,1.7,��
2016/12/28,19:40,1.091,1.822,1.188,2.072,1.429,0.563,1.031,0.959,���쐼,2.3,��
2016/12/28,19:50,1.089,1.820,1.187,2.072,1.428,0.564,1.030,0.958,���쐼,2.6,��
2016/12/28,20:00,1.091,1.824,1.186,2.075,1.428,0.565,1.032,0.957,���쐼,3.1,��
2016/12/28,20:10,1.089,1.820,1.189,2.073,1.430,0.565,1.032,0.959,���쐼,3.5,��
2016/12/28,20:20,1.091,1.820,1.189,2.076,1.428,0.563,1.033,0.958,���쐼,3.8,��
2016/12/28,20:30,1.091,1.823,1.188,2.076,1.428,0.563,1.031,0.957,��,3.8,��
2016/12/28,20:40,1.093,1.821,1.189,2.076,1.429,0.564,1.032,0.959,���쐼,2.2,��
2016/12/28,20:50,1.088,1.821,1.189,2.074,1.427,0.565,1.032,0.959,�쐼,2.6,��
2016/12/28,21:00,1.090,1.818,1.189,2.072,1.426,0.566,1.029,0.958,��쐼,2.3,��
2016/12/28,21:10,1.089,1.822,1.187,2.073,1.427,0.564,1.031,0.959,�쐼,2.9,��
2016/12/28,21:20,1.090,1.823,1.187,2.073,1.431,0.564,1.031,0.958,���쐼,3.1,��
2016/12/28,21:30,1.091,1.821,1.189,2.075,1.428,0.564,1.032,0.959,���쐼,3.9,��
2016/12/28,21:40,1.090,1.819,1.188,2.072,1.428,0.564,1.029,0.960,��,5.0,��
2016/12/28,21:50,1.090,1.818,1.187,2.074,1.427,0.565,1.033,0.958,��,3.9,��
2016/12/28,22:00,1.088,1.821,1.189,2.072,1.425,0.563,1.031,0.957,��,3.9,��
2016/12/28,22:10,1.088,1.818,1.187,2.075,1.427,0.565,1.032,0.959,���k��,3.6,��
2016/12/28,22:20,1.088,1.820,1.188,2.072,1.423,0.564,1.031,0.957,���k��,4.3,��
2016/12/28,22:30,1.088,1.818,1.188,2.072,1.427,0.564,1.033,0.958,���k��,4.5,��
2016/12/28,22:40,1.088,1.821,1.188,2.072,1.427,0.565,1.031,0.957,���k��,5.0,��
2016/12/28,22:50,1.088,1.819,1.188,2.073,1.426,0.567,1.032,0.956,��,4.6,��
2016/12/28,23:00,1.089,1.822,1.185,2.074,1.429,0.564,1.033,0.958,���k��,4.8,��
2016/12/28,23:10,1.089,1.820,1.186,2.070,1.427,0.564,1.031,0.959,���k��,5.3,��
2016/12/28,23:20,1.090,1.817,1.189,2.074,1.425,0.562,1.031,0.958,���k��,5.7,��
2016/12/28,23:30,1.089,1.820,1.188,2.074,1.426,0.563,1.032,0.957,���k��,5.7,��
2016/12/28,23:40,1.089,1.821,1.187,2.072,1.425,0.564,1.032,0.956,���k��,5.1,��
2016/12/28,23:50,1.089,1.819,1.186,2.071,1.426,0.565,1.031,0.956,���k��,5.2,��
